Thomson, GA

9:21 AM EST on December 11, 2019 (GMT -0500)
Thomson-McDuffie County

Weather History for KHQU - October, 2019

Change the Weather History Date:

Sunday, October 27, 2019

  Actual Average (WUND) Record (WUND)
Temperature  
Mean Temperature 67 °F -  
Max Temperature 79 °F - - (-1)
Min Temperature 55 °F - - (-1)
Cooling Degree Days 2    
Growing Degree Days 17 (Base 50)    
Moisture  
Dew Point 64 °F    
Average Humidity 83    
Maximum Humidity 100    
Minimum Humidity 42    
Precipitation  
Precipitation 0.55 in - - ()
Sea Level Pressure  
Sea Level Pressure 29.93 in    
Wind  
Wind Speed 7 mph (WNW)    
Max Wind Speed 12 mph    
Max Gust Speed 23 mph    
Visibility 9 miles    
Events Rain , Thunderstorm    
Averages and records for this station are not official NWS values.
T = Trace of Precipitation, MM = Missing Value Source: NWS Daily Summary

Daily Weather History Graph

Daily Weather History Graph

Search for Another Location

Airport or City:

Astronomy

Oct. 27, 2019 Rise Set
Actual Time 7:44 AM EDT 6:43 PM EDT
Civil Twilight 7:18 AM EDT 7:08 PM EDT
Nautical Twilight 6:49 AM EDT 7:37 PM EDT
Astronomical Twilight 6:20 AM EDT 8:06 PM EDT
Moon 6:56 AM EDT (10/27) 6:48 PM EDT (10/27)
Length of Visible Light 11h 49m
Length of Day
10h 58m
Waning Crescent, 0% of the Moon is Illuminated
Oct 27
Waning Crescent
Oct 27
New
Nov 4
First Quarter
Nov 12
Full
Nov 19
Last Quarter

Hourly Weather History & Observations

Time (EDT) Temp. Dew Point Humidity Pressure Visibility Wind Dir Wind Speed Gust Speed Precip Events Conditions
12:15 AM 73.6 °F 73.2 °F 99% 29.87 in 5.0 mi SW 6.9 mph - 0.01 in Rain Light Rain
12:35 AM 73.6 °F 73.2 °F 99% 29.87 in 10.0 mi SW 10.4 mph - 0.01 in   Overcast
12:55 AM 73.6 °F 73.2 °F 99% 29.86 in 10.0 mi SW 10.4 mph 16.1 mph 0.01 in   Overcast
1:15 AM 73.8 °F 73.4 °F 99% 29.86 in 10.0 mi WSW 9.2 mph 18.4 mph N/A   Overcast
1:35 AM 73.8 °F 73.2 °F 98% 29.86 in 10.0 mi WSW 6.9 mph - N/A   Overcast
1:55 AM 73.8 °F 73.2 °F 98% 29.86 in 10.0 mi WSW 5.8 mph - N/A   Overcast
2:15 AM 73.8 °F 73.2 °F 98% 29.86 in 10.0 mi WSW 5.8 mph - N/A   Overcast
2:35 AM 73.6 °F 73.0 °F 98% 29.86 in 10.0 mi WSW 5.8 mph - N/A   Overcast
2:55 AM 73.4 °F 73.0 °F 99% 29.86 in 10.0 mi WSW 6.9 mph - N/A   Overcast
3:15 AM 73.6 °F 73.0 °F 98% 29.85 in 10.0 mi WSW 4.6 mph - N/A   Overcast
3:35 AM 73.6 °F 73.0 °F 98% 29.85 in 10.0 mi WSW 5.8 mph - N/A   Overcast
3:55 AM 73.6 °F 72.9 °F 98% 29.84 in 10.0 mi WSW 5.8 mph - N/A   Overcast
4:15 AM 73.4 °F 72.9 °F 98% 29.84 in 2.5 mi WSW 6.9 mph - 0.01 in Rain Rain
4:35 AM 73.0 °F 72.9 °F 99% 29.83 in 2.0 mi WSW 5.8 mph - 0.06 in Rain Light Rain
4:55 AM 72.9 °F 72.9 °F 100% 29.83 in 5.0 mi WSW 5.8 mph - 0.06 in Rain Light Rain
5:15 AM 72.9 °F 72.9 °F 100% 29.83 in 1.0 mi Calm Calm - 0.20 in Rain Heavy Rain
5:35 AM 73.0 °F 73.0 °F 100% 29.84 in 3.0 mi West 4.6 mph - 0.23 in Rain Rain
5:55 AM 73.0 °F - N/A% 29.85 in 4.0 mi West 5.8 mph - 0.30 in Rain Light Rain
6:15 AM 73.0 °F - N/A% 29.85 in 7.0 mi West 5.8 mph - 0.01 in   Overcast
6:35 AM 73.2 °F - N/A% 29.85 in 7.0 mi West 8.1 mph - 0.01 in   Overcast
6:55 AM 70.7 °F 70.2 °F 98% 29.87 in 2.5 mi NNW 10.4 mph 23.0 mph 0.08 in Rain Rain
7:15 AM 70.0 °F 69.6 °F 99% 29.89 in 4.0 mi NNW 11.5 mph - 0.08 in Rain Light Rain
7:55 AM 69.4 °F 68.7 °F 98% 29.90 in 10.0 mi NNW 4.6 mph - 0.10 in   Overcast
8:15 AM 69.3 °F 68.7 °F 98% 29.91 in 10.0 mi Calm Calm - N/A   Overcast
8:35 AM 69.4 °F 68.9 °F 98% 29.92 in 10.0 mi NNW 4.6 mph - N/A   Overcast
8:55 AM 69.1 °F 67.3 °F 94% 29.93 in 10.0 mi NNW 8.1 mph - N/A   Overcast
9:15 AM 68.4 °F 66.4 °F 93% 29.94 in 10.0 mi NNW 6.9 mph - N/A Thunderstorm Overcast
9:35 AM 68.7 °F 66.4 °F 92% 29.94 in 10.0 mi North 8.1 mph - N/A   Overcast
9:55 AM 68.5 °F 64.6 °F 87% 29.95 in 10.0 mi NNW 6.9 mph - N/A   Mostly Cloudy
10:15 AM 70.0 °F 64.6 °F 83% 29.95 in 10.0 mi NNW 6.9 mph - N/A   Scattered Clouds
10:35 AM 70.5 °F 64.2 °F 80% 29.96 in 10.0 mi NW 9.2 mph - N/A   Clear
10:55 AM 69.8 °F 63.3 °F 80% 29.96 in 10.0 mi NNW 9.2 mph - N/A   Mostly Cloudy
11:15 AM 71.4 °F 63.1 °F 75% 29.96 in 10.0 mi North 9.2 mph - N/A   Mostly Cloudy
11:35 AM 72.0 °F 62.8 °F 73% 29.97 in 10.0 mi NNW 9.2 mph - N/A   Scattered Clouds
11:55 AM 72.5 °F 62.6 °F 71% 29.97 in 10.0 mi NW 10.4 mph - N/A   Clear
12:15 PM 73.2 °F 62.8 °F 70% 29.96 in 10.0 mi West 9.2 mph 17.3 mph N/A   Clear
12:35 PM 74.8 °F 61.3 °F 63% 29.96 in 10.0 mi West 8.1 mph 16.1 mph N/A   Clear
12:55 PM 75.4 °F 60.8 °F 60% 29.96 in 10.0 mi WNW 8.1 mph - N/A   Clear
1:15 PM 76.1 °F 60.3 °F 58% 29.95 in 10.0 mi WNW 10.4 mph - N/A   Clear
1:55 PM 77.4 °F 57.7 °F 51% 29.94 in 10.0 mi NNW 9.2 mph - N/A   Clear
2:15 PM 77.7 °F 57.4 °F 49% 29.93 in 10.0 mi NW 6.9 mph - N/A   Clear
2:35 PM 77.9 °F 57.9 °F 50% 29.92 in 10.0 mi WNW 8.1 mph - N/A   Clear
2:55 PM 78.8 °F 57.2 °F 47% 29.92 in 10.0 mi WNW 8.1 mph - N/A   Clear
3:35 PM 78.6 °F 56.3 °F 46% 29.92 in 10.0 mi West 3.5 mph - N/A   Clear
3:55 PM 79.0 °F 55.8 °F 45% 29.92 in 10.0 mi WNW 5.8 mph - N/A   Clear
4:15 PM 79.0 °F 54.3 °F 42% 29.93 in 10.0 mi NW 6.9 mph - N/A   Clear
4:35 PM 78.3 °F 55.0 °F 45% 29.94 in 10.0 mi NW 6.9 mph - N/A   Clear
4:55 PM 78.1 °F 54.7 °F 44% 29.94 in 10.0 mi WNW 6.9 mph - N/A   Clear
5:15 PM 77.7 °F 55.2 °F 46% 29.94 in 10.0 mi NW 5.8 mph - N/A   Clear
5:35 PM 77.7 °F 54.1 °F 44% 29.94 in 10.0 mi NNW 4.6 mph - N/A   Clear
5:55 PM 76.1 °F 55.0 °F 48% 29.94 in 10.0 mi NW 4.6 mph - N/A   Clear
6:15 PM 73.0 °F 56.3 °F 56% 29.95 in 10.0 mi NW 3.5 mph - N/A   Clear
6:35 PM 68.9 °F 59.9 °F 73% 29.95 in 10.0 mi WNW 3.5 mph - N/A   Clear
6:55 PM 66.9 °F 60.3 °F 79% 29.96 in 10.0 mi Calm Calm - N/A   Clear
7:15 PM 65.5 °F 60.4 °F 84% 29.97 in 10.0 mi Calm Calm - N/A   Clear
7:35 PM 63.5 °F 60.3 °F 89% 29.97 in 10.0 mi Calm Calm - N/A   Clear
7:55 PM 62.2 °F 60.1 °F 93% 29.98 in 10.0 mi Calm Calm - N/A   Clear
8:15 PM 61.3 °F 59.9 °F 95% 29.98 in 10.0 mi Calm Calm - N/A   Clear
8:35 PM 61.0 °F 59.9 °F 96% 29.99 in 10.0 mi Calm Calm - N/A   Clear
8:55 PM 59.9 °F 59.4 °F 98% 29.99 in 10.0 mi Calm Calm - N/A   Clear
9:15 PM 59.5 °F 59.0 °F 98% 30.00 in 10.0 mi Calm Calm - N/A   Clear
9:35 PM 58.8 °F 58.5 °F 99% 30.00 in 10.0 mi Calm Calm - N/A   Clear
9:55 PM 58.6 °F 58.1 °F 98% 30.00 in 10.0 mi North - - N/A   Clear
10:15 PM 57.7 °F 57.6 °F 99% 30.01 in 10.0 mi North - - N/A   Clear
10:35 PM 58.1 °F 57.9 °F 99% 30.01 in 10.0 mi North - - N/A   Clear
10:55 PM 57.2 °F 57.0 °F 99% 30.02 in 10.0 mi North - - N/A   Clear
11:15 PM 56.7 °F 56.5 °F 99% 30.02 in 10.0 mi North - - N/A   Clear
11:35 PM 55.9 °F 55.8 °F 99% 30.02 in 10.0 mi North - - N/A   Clear
11:55 PM 55.4 °F 55.2 °F 99% 30.02 in 10.0 mi North - - N/A   Clear